Date String (YYYY-MM-DD hh:mm:ss) UTC,Instrument flags,absolute air pressure of the measurement (hPa),sample flow rate (lpm),inlet stack bypass flow (lpm),air temperature of the measurement (°C),ambient temperature measured by the external sensor (°C),aerosol sample conditioner tube jacket temperature (°C),OPC LED temperature (°C),internal box temperature (°C),relative humidity of the measurement (%),span deviation,mass concentration of particles derived from Lorenz-Mie calculation of OPC scattering (μg/m³),mass concentration of particles derived from Lorenz-Mie calculation of OPC scattering (μg/m³),mass concentration of particles derived from Lorenz-Mie calculation of OPC scattering (μg/m³)
DateTimeUTC,F1_M11,P_M11,Q1_M11,Q2_M11,T1_M11,T2_M11,T3_M11,T4_M11,T5_M11,U1_M11,ZSPAN_M11,X2_M11,X0_M11,X1_M11
2024-02-01 22:00:00,SystemResetWarning,0822.3,4.99,000.00,025.8,025.5,000.0,033.7,027.7,09.7,0000.0,0003.35,0009.52,0002.82
2024-02-01 22:01:00,SystemResetWarning,0822.2,5.00,000.00,025.8,025.2,000.0,033.7,027.6,09.6,0000.0,0003.34,0009.48,0002.84
2024-02-01 22:02:00,SystemResetWarning,0822.1,5.00,000.00,025.5,023.2,000.0,033.8,026.6,09.8,0000.0,0003.37,0010.00,0002.87
2024-02-01 22:03:00,SystemResetWarning,0822.1,5.01,000.00,025.2,022.6,000.0,033.9,026.1,10.0,0000.0,0003.41,0010.00,0002.92
2024-02-01 22:04:00,SystemResetWarning,0822.1,5.01,000.00,025.1,022.8,000.0,033.8,026.1,10.0,0000.0,0003.43,0009.74,0002.95
2024-02-01 22:05:00,SystemResetWarning,0822.1,4.99,000.00,025.1,023.2,000.0,033.7,026.4,09.9,0000.0,0003.49,0010.30,0003.02
2024-02-01 22:06:00,SystemResetWarning,0822.2,4.99,000.00,025.1,023.5,000.0,033.6,026.6,09.8,0000.0,0003.51,0010.63,0003.09
2024-02-01 22:07:00,SystemResetWarning,0822.2,5.00,000.00,025.2,023.9,000.0,033.5,026.8,09.8,0000.0,0003.54,0011.23,0003.13
2024-02-01 22:08:00,SystemResetWarning,0822.2,5.00,000.00,025.2,024.2,000.0,033.5,026.9,09.8,0000.0,0003.53,0011.14,0003.15
2024-02-01 22:09:00,SystemResetWarning,0822.2,4.98,000.00,025.3,024.5,000.0,033.5,027.1,09.9,0000.0,0003.57,0010.51,0003.17
2024-02-01 22:10:00,SystemResetWarning,0822.2,5.00,000.00,025.4,024.7,000.0,033.5,027.2,09.8,0000.0,0003.57,0010.29,0003.17
2024-02-01 22:11:00,SystemResetWarning,0822.3,5.00,000.00,025.4,024.9,000.0,033.5,027.2,09.7,0000.0,0003.61,0010.23,0003.17
2024-02-01 22:12:00,SystemResetWarning,0822.2,5.00,000.00,025.5,024.9,000.0,033.6,027.3,09.6,0000.0,0003.66,0011.21,0003.20
2024-02-01 22:13:00,SystemResetWarning,0822.2,5.00,000.00,025.3,023.1,000.0,033.7,026.4,09.7,0000.0,0003.68,0011.45,0003.24
2024-02-01 22:14:00,SystemResetWarning,0822.1,5.01,000.00,024.9,021.4,000.0,033.7,025.5,09.9,0000.0,0003.70,0011.56,0003.26
2024-02-01 22:15:00,SystemResetWarning,0822.1,5.01,000.00,024.6,021.5,000.0,033.6,025.3,10.0,0000.0,0003.70,0011.10,0003.29
2024-02-01 22:16:00,SystemResetWarning,0822.1,5.01,000.00,024.5,021.9,000.0,033.5,025.5,10.0,0000.0,0003.70,0010.63,0003.30
2024-02-01 22:17:00,SystemResetWarning,0822.1,5.00,000.00,024.6,022.4,000.0,033.3,025.8,10.2,0000.0,0003.71,0011.85,0003.30
2024-02-01 22:18:00,SystemResetWarning,0822.1,5.01,000.00,024.6,022.8,000.0,033.2,026.1,10.1,0000.0,0003.69,0012.30,0003.29
2024-02-01 22:19:00,SystemResetWarning,0822.1,4.99,000.00,024.7,023.2,000.0,033.2,026.3,10.1,0000.0,0003.69,0012.59,0003.29
2024-02-01 22:20:00,SystemResetWarning,0822.1,5.00,000.00,024.7,023.5,000.0,033.1,026.5,10.0,0000.0,0003.69,0012.81,0003.28
2024-02-01 22:21:00,SystemResetWarning,0822.1,5.01,000.00,024.8,023.8,000.0,033.1,026.6,09.9,0000.0,0003.69,0013.28,0003.28
2024-02-01 22:22:00,SystemResetWarning,0822.1,5.00,000.00,024.9,024.1,000.0,033.1,026.7,10.1,0000.0,0003.64,0013.35,0003.29
2024-02-01 22:23:00,SystemResetWarning,0822.1,5.01,000.00,025.0,024.3,000.0,033.1,026.8,10.0,0000.0,0003.63,0012.26,0003.28
2024-02-01 22:24:00,SystemResetWarning,0822.1,4.99,000.00,025.0,024.5,000.0,033.2,026.9,09.9,0000.0,0003.62,0011.40,0003.26
2024-02-01 22:25:00,SystemResetWarning,0822.1,5.00,000.00,025.1,024.6,000.0,033.2,027.0,09.9,0000.0,0003.61,0011.31,0003.26
2024-02-01 22:26:00,SystemResetWarning,0822.1,5.00,000.00,025.2,024.8,000.0,033.2,027.1,09.7,0000.0,0003.62,0011.56,0003.26
2024-02-01 22:27:00,SystemResetWarning,0822.1,5.00,000.00,025.3,024.9,000.0,033.3,027.2,09.8,0000.0,0003.65,0011.71,0003.26
2024-02-01 22:28:00,SystemResetWarning,0822.1,5.01,000.00,025.3,025.0,000.0,033.3,027.3,09.7,0000.0,0003.65,0010.32,0003.27
2024-02-01 22:29:00,SystemResetWarning,0822.1,5.01,000.00,025.4,025.1,000.0,033.3,027.4,09.6,0000.0,0003.68,0009.37,0003.28
2024-02-01 22:30:00,SystemResetWarning,0822.1,4.99,000.00,025.5,025.2,000.0,033.4,027.4,09.7,0000.0,0003.69,0009.08,0003.27
2024-02-01 22:31:00,SystemResetWarning,0822.1,5.00,000.00,025.6,025.3,000.0,033.5,027.5,09.6,0000.0,0003.66,0009.53,0003.27
2024-02-01 22:32:00,SystemResetWarning,0822.1,5.00,000.00,025.6,025.4,000.0,033.5,027.6,09.5,0000.0,0003.68,0009.05,0003.27
2024-02-01 22:33:00,SystemResetWarning,0822.1,5.01,000.00,025.7,025.4,000.0,033.5,027.6,09.5,0000.0,0003.72,0008.58,0003.28
2024-02-01 22:34:00,SystemResetWarning,0822.1,4.99,000.00,025.6,024.2,000.0,033.6,027.0,09.5,0000.0,0003.76,0008.68,0003.29
2024-02-01 22:35:00,SystemResetWarning,0822.0,5.00,000.00,025.2,022.4,000.0,033.7,026.1,09.8,0000.0,0003.78,0008.95,0003.31
2024-02-01 22:36:00,SystemResetWarning,0822.0,5.01,000.00,025.0,022.5,000.0,033.7,026.0,09.9,0000.0,0003.79,0010.09,0003.33
2024-02-01 22:37:00,SystemResetWarning,0822.1,5.00,000.00,025.0,022.8,000.0,033.6,026.2,09.8,0000.0,0003.81,0009.69,0003.33
2024-02-01 22:38:00,SystemResetWarning,0822.1,5.00,000.00,025.0,023.2,000.0,033.5,026.4,09.8,0000.0,0003.79,0009.39,0003.33
2024-02-01 22:39:00,SystemResetWarning,0822.1,5.00,000.00,025.0,023.6,000.0,033.4,026.6,09.8,0000.0,0003.78,0009.64,0003.32
2024-02-01 22:40:00,SystemResetWarning,0822.1,5.00,000.00,025.1,023.9,000.0,033.4,026.8,09.7,0000.0,0003.77,0009.98,0003.31
2024-02-01 22:41:00,SystemResetWarning,0822.1,4.99,000.00,025.2,024.2,000.0,033.4,026.9,09.6,0000.0,0003.78,0010.01,0003.30
2024-02-01 22:42:00,SystemResetWarning,0822.1,4.99,000.00,025.2,024.4,000.0,033.4,027.0,09.7,0000.0,0003.78,0009.37,0003.30
2024-02-01 22:43:00,SystemResetWarning,0822.1,5.00,000.00,025.3,024.6,000.0,033.4,027.1,09.7,0000.0,0003.76,0009.56,0003.29
2024-02-01 22:44:00,SystemResetWarning,0822.1,5.00,000.00,025.4,024.8,000.0,033.4,027.2,09.7,0000.0,0003.73,0009.60,0003.28
2024-02-01 22:45:00,SystemResetWarning,0822.1,4.99,000.00,025.4,024.9,000.0,033.5,027.3,09.6,0000.0,0003.70,0009.54,0003.25
2024-02-01 22:46:00,SystemResetWarning,0822.1,5.00,000.00,025.5,025.1,000.0,033.5,027.4,09.5,0000.0,0003.68,0010.17,0003.23
2024-02-01 22:47:00,SystemResetWarning,0822.1,5.00,000.00,025.6,025.2,000.0,033.5,027.5,09.4,0000.0,0003.67,0009.52,0003.22
2024-02-01 22:48:00,SystemResetWarning,0822.1,5.01,000.00,025.6,025.3,000.0,033.6,027.5,09.5,0000.0,0003.64,0009.85,0003.21
2024-02-01 22:49:00,SystemResetWarning,0822.1,5.01,000.00,025.7,025.0,000.0,033.6,027.4,09.5,0000.0,0003.65,0009.90,0003.20
2024-02-01 22:50:00,SystemResetWarning,0822.1,4.98,000.00,025.4,022.9,000.0,033.7,026.4,09.7,0000.0,0003.69,0009.71,0003.21
2024-02-01 22:51:00,SystemResetWarning,0822.0,5.02,000.00,025.1,022.3,000.0,033.8,026.0,09.8,0000.0,0003.68,0009.31,0003.21
2024-02-01 22:52:00,SystemResetWarning,0822.0,5.00,000.00,025.0,022.6,000.0,033.6,026.0,09.8,0000.0,0003.67,0009.27,0003.22
2024-02-01 22:53:00,SystemResetWarning,0822.1,4.99,000.00,025.0,022.9,000.0,033.5,026.3,09.9,0000.0,0003.65,0009.14,0003.24
2024-02-01 22:54:00,SystemResetWarning,0822.1,4.99,000.00,025.0,023.3,000.0,033.4,026.5,09.9,0000.0,0003.66,0008.97,0003.24
2024-02-01 22:55:00,SystemResetWarning,0822.1,5.01,000.00,025.1,023.7,000.0,033.4,026.7,09.8,0000.0,0003.65,0008.77,0003.24
2024-02-01 22:56:00,SystemResetWarning,0822.1,5.01,000.00,025.1,023.9,000.0,033.4,026.8,09.7,0000.0,0003.65,0009.31,0003.25
2024-02-01 22:57:00,SystemResetWarning,0822.1,4.99,000.00,025.2,024.2,000.0,033.4,027.0,09.8,0000.0,0003.65,0010.04,0003.26
2024-02-01 22:58:00,SystemResetWarning,0822.1,4.99,000.00,025.2,024.4,000.0,033.4,027.1,09.8,0000.0,0003.67,0009.50,0003.26
2024-02-01 22:59:00,SystemResetWarning,0822.2,5.00,000.00,025.3,024.6,000.0,033.4,027.2,09.8,0000.0,0003.67,0009.12,0003.25
